Torna al catalogo

COSMOS 1736 FUEL CORE

AttivoLEO
NORAD 16809·DEBRIS·🇷🇺 Russia

Lanciato Mar 21, 1986 da Baikonur Cosmodrome

Loading…

Prossimi Passaggi (prossime 24 ore)

TLE

AggiornatoSource: Space-Track

Epoca: Sep 14, 2026, 10:30 UTC

1 16809U 86024E   26257.43753708 -.00000089  00000-0 -11033-5 0  9995
2 16809  64.9876 274.4793 0032083 196.5814 232.4287 13.81698929 44464

Traccia COSMOS 1736 FUEL CORE in tempo reale con AllMySat

Download on the App Store